FW4566 Weather Reports


time (UTC)temp
C
wind
direction
speed
KPH
gust
KPH
rain 1hr
cm
rain 24hr
cm
rain mn
cm
humidity
%
barometer
mb
20260502164039 12 360 4.8 16.1 0.00 0.00 0.00 41 1018.2
20260502163538 11 360 6.4 16.1 0.00 0.00 0.00 39 1018.5
20260502163048 11 360 3.2 16.1 0.00 0.00 0.00 40 1018.4
20260502162538 11 360 8.0 16.1 0.00 0.00 0.00 41 1018.7
20260502162039 12 360 4.8 12.9 0.00 0.00 0.00 40 1018.6
20260502161535 11 360 3.2 9.7 0.00 0.00 0.00 43 1018.7
20260502161035 11 360 4.8 19.3 0.00 0.00 0.00 43 1018.9
20260502160535 11 360 4.8 19.3 0.00 0.00 0.00 43 1019.0
20260502152027 11 360 3.2 14.5 0.00 0.00 0.00 53 1019.1
20260502151540 10 360 3.2 16.1 0.00 0.00 0.00 50 1019.1
20260502151026 11 360 4.8 16.1 0.00 0.00 0.00 48 1019.3
20260502150525 11 360 3.2 12.9 0.00 0.00 0.00 47 1019.2
20260502130554 5 360 0.0 0.0 0.00 0.00 0.00 96 1019.2
20260502123550 3 360 0.0 0.0 0.00 0.00 0.00 95 1019.3
20260502123052 2 360 0.0 0.0 0.00 0.00 0.00 95 1019.3
20260502122548 2 360 0.0 0.0 0.00 0.00 0.00 95 1019.3
20260502122047 2 360 0.0 0.0 0.00 0.00 0.00 95 1019.2
20260502121547 2 360 0.0 1.6 0.00 0.00 0.00 95 1019.3
20260502121047 2 360 0.0 1.6 0.00 0.00 0.00 95 1019.5
20260502120548 2 360 0.0 1.6 0.00 0.00 0.00 95 1019.4
20260502115547 2 360 0.0 3.2 0.00 0.00 0.00 95 1019.5
20260502115046 2 360 0.0 3.2 0.00 0.00 0.00 95 1019.4
20260502114544 1 360 0.0 3.2 0.00 0.00 0.00 94 1019.4
20260502114044 1 360 0.0 3.2 0.00 0.00 0.00 94 1019.3
20260502113542 1 360 0.0 3.2 0.00 0.00 0.00 94 1019.3
20260502113041 1 360 0.0 3.2 0.00 0.00 0.00 94 1019.3
20260502112539 1 360 0.0 0.0 0.00 0.00 0.00 94 1019.2
20260502112038 1 360 0.0 1.6 0.00 0.00 0.00 94 1019.2
20260502111540 1 360 0.0 1.6 0.00 0.00 0.00 94 1019.2
20260502111040 1 360 0.0 1.6 0.00 0.00 0.00 94 1019.2
20260502110537 1 360 0.0 1.6 0.00 0.00 0.00 94 1019.0
20260502110038 1 360 0.0 1.6 0.00 0.00 0.00 94 1019.1
20260502105536 1 360 0.0 1.6 0.00 0.00 0.00 94 1019.2
20260502105036 1 360 0.0 1.6 0.00 0.00 0.00 94 1019.4
20260502104537 1 360 0.0 1.6 0.00 0.00 0.00 94 1019.5
20260502104035 1 360 0.0 3.2 0.00 0.00 0.00 94 1019.5
20260502103533 1 360 0.0 3.2 0.00 0.00 0.00 94 1019.4
20260502103033 1 360 1.6 3.2 0.00 0.00 0.00 94 1019.3
20260502102538 1 360 1.6 3.2 0.00 0.00 0.00 94 1019.3
20260502102032 1 360 0.0 1.6 0.00 0.00 0.00 94 1019.3
20260502101530 1 360 0.0 0.0 0.00 0.00 0.00 94 1019.4
20260502101030 1 360 0.0 3.2 0.00 0.00 0.00 94 1019.4
20260502100529 1 360 0.0 1.6 0.00 0.00 0.00 94 1019.3
20260502091524 2 360 0.0 1.6 0.00 0.00 0.00 94 1019.5
20260502091024 2 360 0.0 1.6 0.00 0.00 0.00 94 1019.3
20260502090524 2 360 0.0 1.6 0.00 0.00 0.00 94 1019.3
20260502071517 2 360 0.0 1.6 0.00 0.00 0.00 93 1019.0
20260502071016 2 360 0.0 1.6 0.00 0.00 0.00 93 1018.9
20260502070516 2 360 0.0 0.0 0.00 0.00 0.00 93 1018.9
20260502070015 2 360 0.0 0.0 0.00 0.00 0.00 92 1018.9
20260502065515 2 360 0.0 0.0 0.00 0.00 0.00 92 1019.0
20260502065013 2 360 0.0 0.0 0.00 0.00 0.00 92 1019.1
20260502064513 2 360 0.0 0.0 0.00 0.00 0.00 92 1019.2
20260502064021 2 360 0.0 0.0 0.00 0.00 0.00 92 1019.2
20260502063511 2 360 0.0 0.0 0.00 0.00 0.00 92 1019.2
20260502063011 3 360 0.0 1.6 0.00 0.00 0.00 92 1019.2
20260502062512 3 360 0.0 1.6 0.00 0.00 0.00 92 1019.3
20260502062008 3 360 0.0 0.0 0.00 0.00 0.00 92 1019.4
20260502061512 3 360 0.0 0.0 0.00 0.00 0.00 92 1019.5
20260502061008 3 360 0.0 0.0 0.00 0.00 0.00 91 1019.6
20260502060507 3 360 0.0 0.0 0.00 0.00 0.00 92 1019.5
20260502060007 3 360 0.0 0.0 0.00 0.00 0.00 91 1019.5
20260502055508 3 360 0.0 0.0 0.00 0.00 0.00 91 1019.7
20260502055006 3 360 0.0 0.0 0.00 0.00 0.00 91 1019.6
20260502054504 3 360 0.0 0.0 0.00 0.00 0.00 91 1019.6
20260502054007 3 360 0.0 0.0 0.00 0.00 0.00 91 1019.5
20260502053503 3 360 0.0 0.0 0.00 0.00 0.00 90 1019.7
20260502053003 3 360 0.0 0.0 0.00 0.00 0.00 90 1019.6
20260502052502 3 360 0.0 0.0 0.00 0.00 0.00 90 1019.7
20260502052002 3 360 0.0 0.0 0.00 0.00 0.00 90 1019.7
20260502051503 3 360 0.0 0.0 0.00 0.00 0.00 90 1019.7
20260502051001 4 360 0.0 0.0 0.00 0.00 0.00 89 1019.8
20260502050600 4 360 0.0 0.0 0.00 0.00 0.00 89 1019.8
20260502050100 4 360 0.0 0.0 0.00 0.00 0.00 88 1019.9
20260502045559 4 360 0.0 0.0 0.00 0.00 0.00 88 1019.9
20260502045058 4 360 0.0 0.0 0.00 0.00 0.00 88 1019.9
20260502044556 5 360 0.0 0.0 0.00 0.00 0.00 88 1019.8
20260502044055 5 360 0.0 0.0 0.00 0.00 0.00 87 1019.9
20260502043554 5 360 0.0 1.6 0.00 0.00 0.00 86 1019.9
20260502043100 5 360 0.0 1.6 0.00 0.00 0.00 85 1020.0
20260502042552 5 360 0.0 0.0 0.00 0.00 0.00 85 1019.9
20260502042051 5 360 0.0 0.0 0.00 0.00 0.00 84 1019.8
20260502041554 5 360 0.0 1.6 0.00 0.00 0.00 83 1019.7
20260502041049 6 360 0.0 1.6 0.00 0.00 0.00 83 1019.6
20260502040548 6 360 0.0 1.6 0.00 0.00 0.00 82 1019.5
20260502040049 6 360 0.0 0.0 0.00 0.00 0.00 82 1019.5
20260502035547 6 360 0.0 0.0 0.00 0.00 0.00 80 1019.5
20260502035047 6 360 0.0 0.0 0.00 0.00 0.00 80 1019.4
20260502034547 6 360 0.0 1.6 0.00 0.00 0.00 78 1019.5
20260502034047 7 360 0.0 3.2 0.00 0.00 0.00 77 1019.4
20260502033557 7 360 0.0 3.2 0.00 0.00 0.00 76 1019.5
20260502033045 7 360 1.6 3.2 0.00 0.00 0.00 76 1019.5
20260502032545 7 360 0.0 3.2 0.00 0.00 0.00 75 1019.4
20260502032045 7 360 0.0 4.8 0.00 0.00 0.00 74 1019.4
20260502031549 8 360 1.6 4.8 0.00 0.00 0.00 74 1019.5
20260502031045 8 360 1.6 4.8 0.00 0.00 0.00 73 1019.6
20260502030545 8 360 1.6 4.8 0.00 0.00 0.00 73 1019.6
20260502030045 8 360 0.0 4.8 0.00 0.00 0.00 72 1019.6
20260502025544 8 360 1.6 4.8 0.00 0.00 0.00 72 1019.5
20260502025044 8 360 1.6 4.8 0.00 0.00 0.00 72 1019.2
20260502024551 8 360 0.0 4.8 0.00 0.00 0.00 72 1019.2
20260502024043 8 360 1.6 4.8 0.00 0.00 0.00 71 1019.3
20260502023543 8 360 1.6 4.8 0.00 0.00 0.00 71 1019.2
20260502023044 8 360 1.6 3.2 0.00 0.00 0.00 71 1019.2
20260502022541 8 360 1.6 4.8 0.00 0.00 0.00 70 1019.0
20260502022040 8 360 1.6 8.0 0.00 0.00 0.00 70 1018.9
20260502021541 8 360 1.6 8.0 0.00 0.00 0.00 69 1018.8
20260502021041 9 360 3.2 8.0 0.00 0.00 0.00 69 1018.9
20260502020540 9 360 1.6 8.0 0.00 0.00 0.00 69 1018.8
20260502020041 9 360 3.2 8.0 0.00 0.00 0.00 70 1018.7
20260502015544 9 360 1.6 8.0 0.00 0.00 0.00 70 1018.7
20260502015043 9 360 1.6 4.8 0.00 0.00 0.00 70 1018.6
20260502014540 9 360 1.6 4.8 0.00 0.00 0.00 70 1018.5
20260502014040 9 360 3.2 4.8 0.00 0.00 0.00 70 1018.5
20260502013539 9 360 1.6 12.9 0.00 0.00 0.00 69 1018.2
20260502013040 10 360 3.2 12.9 0.00 0.00 0.00 70 1018.1
20260502012539 10 360 3.2 8.0 0.00 0.00 0.00 72 1018.0
20260502012039 10 360 4.8 16.1 0.00 0.00 0.00 74 1017.9
20260502011540 10 360 4.8 16.1 0.00 0.00 0.00 76 1017.8
20260502011039 10 360 6.4 14.5 0.00 0.00 0.00 79 1017.9
20260502010540 9 360 3.2 6.4 0.00 0.00 0.00 84 1017.7
20260502010038 10 360 0.0 4.8 0.00 0.00 0.00 85 1017.5
20260502005538 9 360 1.6 4.8 0.00 0.00 0.00 85 1017.4
20260502005038 9 360 0.0 4.8 0.00 0.00 0.00 86 1017.4
20260502004538 9 360 1.6 4.8 0.00 0.00 0.00 87 1017.3
20260502004039 9 360 0.0 3.2 0.00 0.00 0.00 86 1017.3
20260502003537 10 360 0.0 1.6 0.00 0.00 0.00 85 1017.0
20260502003037 10 360 0.0 4.8 0.00 0.00 0.00 86 1017.0
20260502002537 10 360 1.6 4.8 0.00 0.00 0.00 86 1016.9
20260502002038 9 360 0.0 0.0 0.00 0.00 0.00 87 1016.8
20260502001537 9 360 0.0 0.0 0.00 0.00 0.00 87 1016.7
20260502001036 10 360 0.0 3.2 0.00 0.00 0.00 87 1016.4
20260502000536 10 360 0.0 3.2 0.00 0.00 0.00 85 1016.2
20260502000040 10 360 0.0 3.2 0.00 0.00 0.00 83 1016.1
20260501235537 10 360 0.0 3.2 0.00 0.00 0.00 79 1016.1
20260501235036 10 360 0.0 0.0 0.00 0.00 0.00 81 1016.1
20260501234536 10 360 0.0 1.6 0.00 0.00 0.00 79 1016.0
20260501234040 10 360 0.0 1.6 0.00 0.00 0.00 81 1015.9
20260501233535 10 360 0.0 3.2 0.00 0.00 0.00 83 1016.0
20260501233035 10 360 0.0 3.2 0.00 0.00 0.00 83 1015.9
20260501232538 10 360 0.0 1.6 0.00 0.00 0.00 81 1016.0
20260501232034 10 360 0.0 1.6 0.00 0.00 0.00 78 1015.9
20260501231534 10 360 0.0 3.2 0.00 0.00 0.00 77 1016.0
20260501231034 10 360 0.0 3.2 0.00 0.00 0.00 75 1016.0
20260501230534 10 360 0.0 6.4 0.00 0.00 0.00 74 1016.0
20260501230034 10 360 1.6 6.4 0.00 0.00 0.00 72 1015.8
20260501225534 11 360 1.6 6.4 0.00 0.00 0.00 72 1016.0
20260501225034 11 360 1.6 6.4 0.00 0.00 0.00 71 1016.0
20260501224534 11 360 3.2 6.4 0.00 0.00 0.00 72 1015.9
20260501224033 11 360 3.2 8.0 0.00 0.00 0.00 70 1015.9
20260501223535 11 360 4.8 12.9 0.00 0.00 0.00 69 1015.8
20260501223034 11 360 6.4 12.9 0.00 0.00 0.00 67 1015.7
20260501222535 11 360 4.8 12.9 0.00 0.00 0.00 67 1015.6
20260501222032 11 360 4.8 16.1 0.00 0.00 0.00 67 1015.9
20260501221535 11 360 8.0 16.1 0.00 0.00 0.00 67 1015.7
20260501221032 12 360 4.8 12.9 0.00 0.00 0.00 72 1015.8
20260501220531 12 360 3.2 12.9 0.00 0.00 0.00 71 1015.5
20260501220034 12 360 6.4 12.9 0.00 0.00 0.00 71 1015.6
20260501215531 12 360 4.8 14.5 0.00 0.00 0.00 72 1015.4
20260501215031 12 360 4.8 14.5 0.00 0.00 0.00 72 1015.4
20260501214533 12 360 4.8 12.9 0.00 0.00 0.00 71 1015.3
20260501214031 12 360 4.8 12.9 0.00 0.00 0.00 70 1015.5
20260501213529 12 360 4.8 12.9 0.00 0.00 0.00 70 1015.4
20260501213030 12 360 6.4 17.7 0.00 0.00 0.00 69 1015.3
20260501212529 13 360 9.7 17.7 0.00 0.00 0.00 68 1015.3
20260501212029 13 360 4.8 12.9 0.00 0.00 0.00 68 1015.2
20260501211536 13 360 4.8 17.7 0.00 0.00 0.00 68 1015.2
20260501211030 13 360 8.0 17.7 0.00 0.00 0.00 67 1015.2
20260501210528 13 360 4.8 14.5 0.00 0.00 0.00 67 1015.1
20260501210029 13 360 4.8 14.5 0.00 0.00 0.00 66 1015.1
20260501205529 13 360 4.8 14.5 0.00 0.00 0.00 66 1015.0
20260501205029 13 360 6.4 14.5 0.00 0.00 0.00 65 1014.9
20260501204543 13 360 6.4 14.5 0.00 0.00 0.00 66 1014.9
20260501204028 13 360 4.8 12.9 0.00 0.00 0.00 65 1014.8
20260501203527 13 360 4.8 9.7 0.00 0.00 0.00 63 1014.8
20260501203029 14 360 4.8 14.5 0.00 0.00 0.00 62 1014.7
20260501202527 14 360 6.4 16.1 0.00 0.00 0.00 61 1014.4
20260501202029 15 360 6.4 17.7 0.00 0.00 0.00 58 1014.4
20260501201527 15 360 6.4 14.5 0.00 0.00 0.00 54 1014.2
20260501201026 15 360 4.8 12.9 0.00 0.00 0.00 54 1014.0
20260501200526 15 360 6.4 16.1 0.00 0.00 0.00 50 1014.0
20260501200027 16 360 3.2 16.1 0.00 0.00 0.00 49 1013.9
20260501195526 16 360 9.7 16.1 0.00 0.03 0.00 46 1013.9
20260501195026 16 360 1.6 12.9 0.00 0.03 0.00 46 1013.9
20260501194526 17 360 3.2 12.9 0.00 0.03 0.00 44 1013.9
20260501194026 17 360 1.6 17.7 0.00 0.03 0.00 41 1013.6
20260501193526 17 360 6.4 17.7 0.00 0.03 0.00 39 1013.6
20260501193028 17 360 4.8 12.9 0.00 0.03 0.00 40 1013.5
20260501192625 17 360 4.8 12.9 0.00 0.03 0.00 38 1013.5
20260501192024 17 360 3.2 9.7 0.00 0.03 0.00 39 1013.4
20260501191526 17 360 3.2 9.7 0.00 0.03 0.00 37 1013.4
20260501191027 17 360 6.4 12.9 0.00 0.03 0.00 36 1013.4
20260501190527 18 360 6.4 9.7 0.00 0.03 0.00 39 1013.4
20260501190024 17 360 3.2 8.0 0.00 0.03 0.00 36 1013.3
20260501185523 17 360 3.2 12.9 0.00 0.05 0.00 36 1013.5
20260501185025 17 360 4.8 8.0 0.00 0.05 0.00 38 1013.6
20260501184526 17 360 3.2 9.7 0.00 0.05 0.00 37 1013.6
20260501184022 18 360 3.2 9.7 0.00 0.05 0.00 36 1013.6
20260501183521 17 360 3.2 12.9 0.00 0.05 0.00 39 1013.7
20260501183020 17 360 6.4 12.9 0.00 0.05 0.00 35 1013.6
20260501182520 17 360 3.2 12.9 0.00 0.05 0.00 38 1013.8
20260501182020 18 360 6.4 12.9 0.00 0.05 0.00 39 1013.8
20260501181519 18 360 3.2 12.9 0.00 0.05 0.00 39 1013.8
20260501181021 18 360 6.4 12.9 0.00 0.05 0.00 39 1014.0
20260501180517 17 360 3.2 8.0 0.00 0.05 0.00 37 1013.9
20260501180018 16 360 3.2 14.5 0.00 0.05 0.00 36 1014.0
20260501175517 16 360 4.8 12.9 0.00 0.10 0.00 37 1014.1
20260501175021 16 360 4.8 16.1 0.00 0.10 0.00 36 1013.9
20260501174533 17 360 8.0 17.7 0.00 0.10 0.00 38 1014.0
20260501174015 17 360 3.2 17.7 0.00 0.10 0.00 35 1014.0
20260501173515 17 360 4.8 17.7 0.00 0.10 0.00 37 1014.1
20260501173013 17 360 4.8 17.7 0.00 0.10 0.00 36 1014.2
20260501172513 17 360 4.8 16.1 0.00 0.10 0.00 37 1014.2
20260501172112 17 360 4.8 14.5 0.00 0.10 0.00 37 1014.3
20260501171510 17 360 1.6 12.9 0.00 0.10 0.00 40 1014.5